Time,TemperatureF,DewpointF,PressureIn,WindDirection,WindDirectionDegrees,WindSpeedMPH,WindSpeedGustMPH,Humidity,HourlyPrecipIn,Conditions,Clouds,dailyrainin,SoftwareType,DateUTC
2013-01-14 00:00:00,47.1,46.9,30.09,ESE,117,0.0,0.0,99,0.00,,,0.01,meteohub,2013-01-14 05:00:00,
2013-01-14 00:02:00,47.1,46.9,30.09,ESE,117,0.0,0.0,99,0.00,,,0.01,meteohub,2013-01-14 05:02:00,
2013-01-14 00:04:00,47.1,46.9,30.08,ESE,117,0.0,0.0,99,0.00,,,0.01,meteohub,2013-01-14 05:04:00,
2013-01-14 00:06:00,47.1,46.9,30.08,ESE,117,0.0,0.0,99,0.00,,,0.01,meteohub,2013-01-14 05:06:00,
2013-01-14 00:11:00,47.1,46.9,30.08,ESE,105,0.0,0.0,99,0.00,,,0.01,meteohub,2013-01-14 05:11:00,
2013-01-14 00:16:00,47.1,46.9,30.08,ESE,120,0.0,0.0,99,0.01,,,0.02,meteohub,2013-01-14 05:16:00,
2013-01-14 00:22:00,47.1,46.9,30.08,ESE,120,0.0,0.0,99,0.01,,,0.02,meteohub,2013-01-14 05:22:00,
2013-01-14 00:27:00,47.1,46.9,30.08,ESE,120,0.0,0.0,99,0.01,,,0.02,meteohub,2013-01-14 05:27:00,
2013-01-14 00:32:00,47.1,46.9,30.08,ESE,120,0.0,0.0,99,0.01,,,0.02,meteohub,2013-01-14 05:32:00,
2013-01-14 00:37:00,47.1,46.9,30.08,ESE,120,0.0,0.0,99,0.01,,,0.02,meteohub,2013-01-14 05:37:00,
2013-01-14 00:42:00,47.1,46.9,30.08,ESE,120,0.0,0.0,99,0.01,,,0.02,meteohub,2013-01-14 05:42:00,
2013-01-14 00:47:00,47.1,46.9,30.09,ESE,120,0.0,0.0,99,0.01,,,0.02,meteohub,2013-01-14 05:47:00,
2013-01-14 00:52:00,47.1,46.9,30.08,ESE,120,0.0,0.0,99,0.01,,,0.02,meteohub,2013-01-14 05:52:00,
2013-01-14 00:57:00,47.1,46.9,30.08,ESE,120,0.0,0.0,99,0.01,,,0.02,meteohub,2013-01-14 05:57:00,
2013-01-14 01:02:00,47.1,46.9,30.07,ESE,120,0.0,0.0,99,0.01,,,0.02,meteohub,2013-01-14 06:02:00,
2013-01-14 01:07:00,47.1,46.9,30.07,ESE,114,0.0,0.0,99,0.01,,,0.02,meteohub,2013-01-14 06:07:00,
2013-01-14 01:12:00,47.1,46.9,30.07,ESE,114,0.0,0.0,99,0.00,,,0.02,meteohub,2013-01-14 06:12:00,
2013-01-14 01:17:00,47.1,46.9,30.08,ESE,113,0.0,0.0,99,0.00,,,0.02,meteohub,2013-01-14 06:17:00,
2013-01-14 01:22:00,47.1,46.9,30.07,ESE,114,0.0,0.0,99,0.00,,,0.02,meteohub,2013-01-14 06:22:00,
2013-01-14 01:27:00,47.1,46.9,30.08,North,1,0.0,0.0,99,0.00,,,0.02,meteohub,2013-01-14 06:27:00,
2013-01-14 01:32:00,47.1,46.9,30.09,North,1,0.0,0.0,99,0.00,,,0.02,meteohub,2013-01-14 06:32:00,
2013-01-14 01:37:00,47.1,46.9,30.09,North,1,0.0,0.0,99,0.00,,,0.02,meteohub,2013-01-14 06:37:00,
2013-01-14 01:42:00,47.1,46.9,30.09,North,1,0.0,0.0,99,0.00,,,0.02,meteohub,2013-01-14 06:42:00,
2013-01-14 01:47:00,47.1,46.9,30.09,North,1,0.0,0.0,99,0.00,,,0.02,meteohub,2013-01-14 06:47:00,
2013-01-14 01:52:00,47.1,46.9,30.08,North,1,0.0,0.0,99,0.00,,,0.02,meteohub,2013-01-14 06:52:00,
2013-01-14 01:57:00,47.1,46.9,30.09,North,1,0.0,0.0,99,0.00,,,0.02,meteohub,2013-01-14 06:57:00,
2013-01-14 02:02:00,47.1,46.9,30.09,North,1,0.0,0.0,99,0.00,,,0.02,meteohub,2013-01-14 07:02:00,
2013-01-14 02:07:00,47.1,46.9,30.09,North,1,0.0,0.0,99,0.00,,,0.02,meteohub,2013-01-14 07:07:00,
2013-01-14 02:12:00,47.1,46.9,30.09,NNE,17,0.0,0.0,99,0.00,,,0.02,meteohub,2013-01-14 07:12:00,
2013-01-14 02:17:00,47.3,47.1,30.08,NNE,18,0.0,0.0,99,0.00,,,0.02,meteohub,2013-01-14 07:17:00,
2013-01-14 02:22:00,47.1,46.9,30.08,NNE,17,0.0,0.0,99,0.00,,,0.02,meteohub,2013-01-14 07:22:00,
2013-01-14 02:27:00,47.1,46.9,30.08,NNE,17,0.0,0.0,99,0.00,,,0.02,meteohub,2013-01-14 07:27:00,
2013-01-14 02:33:00,47.1,46.9,30.09,NW,305,0.0,0.0,99,0.00,,,0.02,meteohub,2013-01-14 07:33:00,
2013-01-14 02:38:00,46.9,46.8,30.09,NW,304,0.0,0.0,99,0.00,,,0.02,meteohub,2013-01-14 07:38:00,
2013-01-14 02:43:00,46.9,46.8,30.08,NW,305,0.0,0.0,99,0.00,,,0.02,meteohub,2013-01-14 07:43:00,
2013-01-14 02:48:00,47.1,46.9,30.09,NW,305,0.0,0.0,99,0.00,,,0.02,meteohub,2013-01-14 07:48:00,
2013-01-14 02:53:00,47.1,46.9,30.09,NW,304,0.0,0.0,99,0.00,,,0.02,meteohub,2013-01-14 07:53:00,
2013-01-14 02:58:00,47.1,46.9,30.09,NW,304,0.0,0.0,99,0.00,,,0.02,meteohub,2013-01-14 07:58:00,
2013-01-14 03:03:00,47.1,46.9,30.08,NW,304,0.0,0.0,99,0.00,,,0.02,meteohub,2013-01-14 08:03:00,
2013-01-14 03:08:00,47.1,46.9,30.09,NW,305,0.0,0.0,99,0.00,,,0.02,meteohub,2013-01-14 08:08:00,
2013-01-14 03:14:00,46.9,46.8,30.09,NW,304,0.0,0.0,99,0.00,,,0.02,meteohub,2013-01-14 08:14:00,
2013-01-14 03:19:00,46.9,46.8,30.09,NW,305,0.0,0.0,99,0.00,,,0.02,meteohub,2013-01-14 08:19:00,
2013-01-14 03:24:00,46.9,46.8,30.09,NW,305,0.0,0.0,99,0.00,,,0.02,meteohub,2013-01-14 08:24:00,
2013-01-14 03:29:00,46.9,46.8,30.09,NW,305,0.0,0.0,99,0.00,,,0.02,meteohub,2013-01-14 08:29:00,
2013-01-14 03:34:00,46.9,46.8,30.09,NW,304,0.0,0.0,99,0.00,,,0.02,meteohub,2013-01-14 08:34:00,
2013-01-14 03:39:00,47.1,46.9,30.09,NW,305,0.0,0.0,99,0.00,,,0.02,meteohub,2013-01-14 08:39:00,
2013-01-14 03:44:00,47.1,46.9,30.09,NW,305,0.0,0.0,99,0.00,,,0.02,meteohub,2013-01-14 08:44:00,
2013-01-14 03:50:00,47.1,46.9,30.08,NW,305,0.0,0.0,99,0.00,,,0.02,meteohub,2013-01-14 08:50:00,
2013-01-14 03:55:00,47.3,47.1,30.08,NW,305,0.0,0.0,99,0.00,,,0.02,meteohub,2013-01-14 08:55:00,
2013-01-14 04:00:00,47.3,47.1,30.08,NW,305,0.0,0.0,99,0.00,,,0.03,meteohub,2013-01-14 09:00:00,
2013-01-14 04:05:00,47.3,47.1,30.08,NW,306,0.0,0.0,99,0.01,,,0.03,meteohub,2013-01-14 09:05:00,
2013-01-14 04:10:00,47.3,47.1,30.08,NW,306,0.0,0.0,99,0.01,,,0.03,meteohub,2013-01-14 09:10:00,
2013-01-14 04:15:00,47.3,47.1,30.09,NW,307,0.0,0.0,99,0.01,,,0.03,meteohub,2013-01-14 09:15:00,
2013-01-14 04:20:00,47.5,47.3,30.08,NW,307,0.0,0.0,99,0.01,,,0.03,meteohub,2013-01-14 09:20:00,
2013-01-14 04:25:00,47.5,47.3,30.08,NW,306,0.0,0.0,99,0.01,,,0.03,meteohub,2013-01-14 09:25:00,
2013-01-14 04:30:00,47.7,47.5,30.06,NNW,338,0.0,0.0,99,0.01,,,0.03,meteohub,2013-01-14 09:30:00,
2013-01-14 04:35:00,47.7,47.5,30.05,NE,37,1.0,2.0,99,0.01,,,0.03,meteohub,2013-01-14 09:35:00,
2013-01-14 04:41:00,47.7,47.5,30.04,NE,56,1.0,2.0,99,0.01,,,0.03,meteohub,2013-01-14 09:41:00,
2013-01-14 04:46:00,47.8,47.7,30.03,ESE,111,3.0,3.0,99,0.01,,,0.03,meteohub,2013-01-14 09:46:00,
2013-01-14 04:51:00,47.5,47.3,30.03,SW,228,1.0,5.0,99,0.01,,,0.03,meteohub,2013-01-14 09:51:00,
2013-01-14 04:56:00,47.5,47.3,30.02,SE,143,2.0,5.0,99,0.01,,,0.03,meteohub,2013-01-14 09:56:00,
2013-01-14 05:01:00,47.5,47.3,30.05,WNW,286,2.0,5.0,99,0.00,,,0.03,meteohub,2013-01-14 10:01:00,
2013-01-14 05:06:00,47.5,47.3,30.03,East,94,3.0,4.0,99,0.00,,,0.03,meteohub,2013-01-14 10:06:00,
2013-01-14 05:11:00,47.5,47.3,30.03,North,351,0.0,4.0,99,0.00,,,0.03,meteohub,2013-01-14 10:11:00,
2013-01-14 05:16:00,47.5,47.3,30.01,ESE,103,1.0,4.0,99,0.00,,,0.03,meteohub,2013-01-14 10:16:00,
2013-01-14 05:22:00,47.7,47.5,30.02,East,94,0.0,4.0,99,0.00,,,0.03,meteohub,2013-01-14 10:22:00,
2013-01-14 05:27:00,47.8,47.7,30.01,ESE,119,0.0,4.0,99,0.00,,,0.03,meteohub,2013-01-14 10:27:00,
2013-01-14 05:32:00,47.8,47.7,30.00,ESE,122,0.0,4.0,99,0.00,,,0.03,meteohub,2013-01-14 10:32:00,
2013-01-14 05:37:00,48.0,47.8,30.03,NW,307,3.0,4.0,99,0.00,,,0.03,meteohub,2013-01-14 10:37:00,
2013-01-14 05:42:00,48.0,47.8,30.03,WNW,288,3.0,4.0,99,0.00,,,0.03,meteohub,2013-01-14 10:42:00,
2013-01-14 05:47:00,48.0,47.8,30.06,West,276,2.0,6.0,99,0.00,,,0.03,meteohub,2013-01-14 10:47:00,
2013-01-14 05:52:00,48.0,47.8,30.06,WNW,288,1.0,6.0,99,0.00,,,0.03,meteohub,2013-01-14 10:52:00,
2013-01-14 05:57:00,48.0,47.8,30.05,South,172,0.0,6.0,99,0.00,,,0.03,meteohub,2013-01-14 10:57:00,
2013-01-14 06:02:00,48.2,48.0,30.08,WSW,255,1.0,3.0,99,0.00,,,0.03,meteohub,2013-01-14 11:02:00,
2013-01-14 06:07:00,48.2,48.0,30.08,WSW,246,0.0,3.0,99,0.00,,,0.03,meteohub,2013-01-14 11:07:00,
2013-01-14 06:12:00,48.4,48.2,30.08,WNW,301,1.0,3.0,99,0.00,,,0.03,meteohub,2013-01-14 11:12:00,
2013-01-14 06:17:00,48.4,48.2,30.06,SSE,165,0.0,3.0,99,0.00,,,0.03,meteohub,2013-01-14 11:17:00,
2013-01-14 06:22:00,48.6,48.4,30.06,SE,129,0.0,2.0,99,0.00,,,0.03,meteohub,2013-01-14 11:22:00,
2013-01-14 06:27:00,48.6,48.4,30.06,West,270,0.0,2.0,99,0.00,,,0.03,meteohub,2013-01-14 11:27:00,
2013-01-14 06:32:00,48.6,48.4,30.09,WNW,300,0.0,3.0,99,0.00,,,0.03,meteohub,2013-01-14 11:32:00,
2013-01-14 06:37:00,48.7,48.6,30.08,South,186,0.0,3.0,99,0.00,,,0.03,meteohub,2013-01-14 11:37:00,
2013-01-14 06:42:00,48.7,48.6,30.09,NNW,342,0.0,3.0,99,0.00,,,0.03,meteohub,2013-01-14 11:42:00,
2013-01-14 06:47:00,48.9,48.7,30.08,NNE,27,0.0,2.0,99,0.00,,,0.03,meteohub,2013-01-14 11:47:00,
2013-01-14 06:52:00,48.9,48.7,30.10,WNW,291,2.0,2.0,99,0.00,,,0.03,meteohub,2013-01-14 11:52:00,
2013-01-14 06:57:00,48.9,48.7,30.11,West,278,0.0,3.0,99,0.00,,,0.03,meteohub,2013-01-14 11:57:00,
2013-01-14 07:02:00,48.9,48.7,30.09,NNW,332,1.0,3.0,99,0.00,,,0.03,meteohub,2013-01-14 12:02:00,
2013-01-14 07:07:00,48.9,48.7,30.10,East,89,0.0,3.0,99,0.00,,,0.03,meteohub,2013-01-14 12:07:00,
2013-01-14 07:12:00,48.9,48.7,30.09,ESE,121,0.0,2.0,99,0.00,,,0.03,meteohub,2013-01-14 12:12:00,
2013-01-14 07:17:00,48.9,48.7,30.10,ESE,121,0.0,1.0,99,0.00,,,0.03,meteohub,2013-01-14 12:17:00,
2013-01-14 07:22:00,48.9,48.7,30.11,WNW,284,0.0,1.0,99,0.00,,,0.03,meteohub,2013-01-14 12:22:00,
2013-01-14 07:27:00,48.9,48.7,30.11,WNW,283,0.0,1.0,99,0.00,,,0.03,meteohub,2013-01-14 12:27:00,
2013-01-14 07:32:00,48.9,48.7,30.11,West,267,0.0,3.0,99,0.00,,,0.03,meteohub,2013-01-14 12:32:00,
2013-01-14 07:37:00,48.7,48.6,30.12,West,277,0.0,3.0,99,0.00,,,0.03,meteohub,2013-01-14 12:37:00,
2013-01-14 07:42:00,48.6,48.4,30.10,ENE,57,0.0,3.0,99,0.00,,,0.03,meteohub,2013-01-14 12:42:00,
2013-01-14 07:47:00,48.4,48.2,30.10,ENE,72,0.0,3.0,99,0.00,,,0.03,meteohub,2013-01-14 12:47:00,
2013-01-14 07:52:00,48.4,48.2,30.11,East,96,0.0,3.0,99,0.00,,,0.03,meteohub,2013-01-14 12:52:00,
2013-01-14 07:57:00,48.4,48.2,30.12,NW,316,0.0,1.0,99,0.00,,,0.03,meteohub,2013-01-14 12:57:00,
2013-01-14 08:02:00,48.2,48.0,30.13,WNW,290,0.0,1.0,99,0.00,,,0.03,meteohub,2013-01-14 13:02:00,
2013-01-14 08:07:00,48.4,48.2,30.14,WNW,291,1.0,1.0,99,0.00,,,0.03,meteohub,2013-01-14 13:07:00,
2013-01-14 08:12:00,48.4,48.2,30.15,WNW,285,1.0,3.0,99,0.00,,,0.03,meteohub,2013-01-14 13:12:00,
2013-01-14 08:17:00,48.4,48.2,30.16,WNW,288,1.0,5.0,99,0.00,,,0.03,meteohub,2013-01-14 13:17:00,
2013-01-14 08:22:00,48.4,48.2,30.15,WSW,245,0.0,5.0,99,0.00,,,0.03,meteohub,2013-01-14 13:22:00,
2013-01-14 08:27:00,48.4,48.2,30.15,SSE,159,0.0,4.0,99,0.00,,,0.03,meteohub,2013-01-14 13:27:00,
2013-01-14 08:32:00,48.4,48.2,30.15,West,270,0.0,2.0,99,0.00,,,0.03,meteohub,2013-01-14 13:32:00,
2013-01-14 08:37:00,48.4,48.2,30.16,West,270,0.0,0.0,99,0.00,,,0.03,meteohub,2013-01-14 13:37:00,
2013-01-14 08:42:00,48.6,48.4,30.15,West,270,0.0,0.0,99,0.00,,,0.03,meteohub,2013-01-14 13:42:00,
2013-01-14 08:47:00,48.6,48.4,30.16,West,279,0.0,0.0,99,0.00,,,0.03,meteohub,2013-01-14 13:47:00,
2013-01-14 08:52:00,48.7,48.6,30.16,SSW,205,0.0,0.0,99,0.00,,,0.03,meteohub,2013-01-14 13:52:00,
2013-01-14 08:57:00,48.9,48.7,30.16,SSW,205,0.0,0.0,99,0.00,,,0.03,meteohub,2013-01-14 13:57:00,
2013-01-14 09:02:00,49.1,48.9,30.16,SW,215,0.0,0.0,99,0.00,,,0.03,meteohub,2013-01-14 14:02:00,
2013-01-14 09:07:00,49.3,49.1,30.16,SW,229,0.0,2.0,99,0.00,,,0.03,meteohub,2013-01-14 14:07:00,
2013-01-14 09:12:00,49.5,49.3,30.16,SW,229,0.0,4.0,99,0.00,,,0.03,meteohub,2013-01-14 14:12:00,
2013-01-14 09:17:00,49.6,49.5,30.17,WSW,245,0.0,4.0,99,0.00,,,0.03,meteohub,2013-01-14 14:17:00,
2013-01-14 09:22:00,49.6,49.5,30.17,SW,224,0.0,4.0,99,0.00,,,0.03,meteohub,2013-01-14 14:22:00,
2013-01-14 09:27:00,49.8,49.5,30.17,SW,217,0.0,1.0,99,0.00,,,0.03,meteohub,2013-01-14 14:27:00,
2013-01-14 09:32:00,50.0,49.6,30.17,WSW,257,0.0,1.0,99,0.00,,,0.03,meteohub,2013-01-14 14:32:00,
2013-01-14 09:37:00,50.2,49.8,30.17,WSW,254,0.0,1.0,99,0.00,,,0.03,meteohub,2013-01-14 14:37:00,
2013-01-14 09:42:00,50.5,50.2,30.18,West,269,0.0,1.0,99,0.00,,,0.03,meteohub,2013-01-14 14:42:00,
2013-01-14 09:47:00,51.1,50.7,30.18,WNW,288,2.0,3.0,99,0.00,,,0.03,meteohub,2013-01-14 14:47:00,
2013-01-14 09:52:00,51.4,51.1,30.18,West,278,2.0,4.0,99,0.00,,,0.03,meteohub,2013-01-14 14:52:00,
2013-01-14 09:57:00,51.6,51.3,30.18,West,259,1.0,4.0,99,0.00,,,0.03,meteohub,2013-01-14 14:57:00,
2013-01-14 10:02:00,51.8,51.4,30.18,NW,307,3.0,4.0,99,0.00,,,0.03,meteohub,2013-01-14 15:02:00,
2013-01-14 10:07:00,52.0,51.6,30.18,West,278,0.0,4.0,99,0.00,,,0.03,meteohub,2013-01-14 15:07:00,
2013-01-14 10:12:00,52.0,51.6,30.18,West,264,1.0,6.0,99,0.00,,,0.03,meteohub,2013-01-14 15:12:00,
2013-01-14 10:17:00,52.0,51.6,30.18,WNW,293,3.0,6.0,99,0.00,,,0.03,meteohub,2013-01-14 15:17:00,
2013-01-14 10:22:00,52.0,51.6,30.19,West,279,0.0,3.0,99,0.00,,,0.03,meteohub,2013-01-14 15:22:00,
2013-01-14 10:27:00,52.2,51.8,30.19,WNW,283,2.0,3.0,99,0.00,,,0.03,meteohub,2013-01-14 15:27:00,
2013-01-14 10:32:00,52.3,52.0,30.19,NNW,328,0.0,4.0,99,0.00,,,0.03,meteohub,2013-01-14 15:32:00,
2013-01-14 10:37:00,52.3,52.0,30.19,WNW,301,1.0,4.0,99,0.00,,,0.03,meteohub,2013-01-14 15:37:00,
2013-01-14 10:42:00,52.5,52.2,30.19,WNW,282,1.0,5.0,99,0.00,,,0.03,meteohub,2013-01-14 15:42:00,
2013-01-14 10:47:00,52.5,52.2,30.19,West,277,3.0,5.0,99,0.00,,,0.03,meteohub,2013-01-14 15:47:00,
2013-01-14 10:52:00,52.5,52.2,30.18,WNW,294,1.0,5.0,99,0.00,,,0.03,meteohub,2013-01-14 15:52:00,
2013-01-14 10:57:00,52.5,52.2,30.18,WNW,285,2.0,5.0,99,0.00,,,0.03,meteohub,2013-01-14 15:57:00,
2013-01-14 11:02:00,52.5,52.2,30.19,WNW,294,2.0,7.0,99,0.00,,,0.03,meteohub,2013-01-14 16:02:00,
2013-01-14 11:07:00,52.7,52.3,30.19,WNW,284,1.0,7.0,99,0.00,,,0.03,meteohub,2013-01-14 16:07:00,
2013-01-14 11:12:00,52.9,52.5,30.19,NW,319,5.0,6.0,99,0.00,,,0.03,meteohub,2013-01-14 16:12:00,
2013-01-14 11:17:00,53.1,52.7,30.19,West,278,0.0,6.0,99,0.00,,,0.03,meteohub,2013-01-14 16:17:00,
2013-01-14 11:22:00,53.1,52.5,30.19,West,278,2.0,5.0,98,0.00,,,0.03,meteohub,2013-01-14 16:22:00,
2013-01-14 11:27:00,53.2,52.3,30.20,NW,307,1.0,5.0,97,0.00,,,0.03,meteohub,2013-01-14 16:27:00,
2013-01-14 11:32:00,53.2,52.2,30.19,West,271,3.0,6.0,96,0.00,,,0.03,meteohub,2013-01-14 16:32:00,
2013-01-14 11:37:00,53.2,51.8,30.18,WNW,283,0.0,9.0,95,0.00,,,0.03,meteohub,2013-01-14 16:37:00,
2013-01-14 11:42:00,53.2,51.8,30.18,WNW,293,2.0,9.0,95,0.00,,,0.03,meteohub,2013-01-14 16:42:00,
2013-01-14 11:47:00,53.2,51.6,30.18,WNW,288,2.0,9.0,94,0.00,,,0.03,meteohub,2013-01-14 16:47:00,
2013-01-14 11:52:00,53.4,51.8,30.19,West,281,1.0,6.0,94,0.00,,,0.03,meteohub,2013-01-14 16:52:00,
2013-01-14 11:57:00,53.4,51.8,30.18,West,274,1.0,6.0,94,0.00,,,0.03,meteohub,2013-01-14 16:57:00,
2013-01-14 12:02:00,53.4,51.8,30.18,WNW,291,6.0,6.0,94,0.00,,,0.03,meteohub,2013-01-14 17:02:00,
2013-01-14 12:07:00,53.4,51.4,30.18,NW,313,1.0,6.0,93,0.00,,,0.03,meteohub,2013-01-14 17:07:00,
2013-01-14 12:12:00,53.4,51.4,30.18,West,281,1.0,6.0,93,0.00,,,0.03,meteohub,2013-01-14 17:12:00,
2013-01-14 12:17:00,53.4,51.4,30.18,WSW,249,3.0,6.0,93,0.00,,,0.03,meteohub,2013-01-14 17:17:00,
2013-01-14 12:23:00,53.4,51.4,30.18,West,262,1.0,5.0,93,0.00,,,0.03,meteohub,2013-01-14 17:23:00,
2013-01-14 12:28:00,53.4,51.1,30.18,WNW,288,2.0,5.0,92,0.00,,,0.03,meteohub,2013-01-14 17:28:00,
2013-01-14 12:33:00,53.4,50.9,30.18,WNW,288,1.0,6.0,91,0.00,,,0.03,meteohub,2013-01-14 17:33:00,
2013-01-14 12:38:00,53.2,50.4,30.18,West,271,1.0,6.0,90,0.00,,,0.03,meteohub,2013-01-14 17:38:00,
2013-01-14 12:43:00,53.2,50.0,30.18,WNW,285,1.0,6.0,89,0.00,,,0.03,meteohub,2013-01-14 17:43:00,
2013-01-14 12:48:00,53.2,50.0,30.19,NW,315,3.0,6.0,89,0.00,,,0.03,meteohub,2013-01-14 17:48:00,
2013-01-14 12:53:00,53.4,50.0,30.18,WNW,283,1.0,6.0,88,0.00,,,0.03,meteohub,2013-01-14 17:53:00,
2013-01-14 12:58:00,53.8,49.6,30.18,West,278,2.0,6.0,86,0.00,,,0.03,meteohub,2013-01-14 17:58:00,
2013-01-14 13:03:00,53.8,49.5,30.19,WNW,288,4.0,6.0,85,0.00,,,0.03,meteohub,2013-01-14 18:03:00,
2013-01-14 13:08:00,53.8,48.7,30.20,WNW,293,3.0,5.0,83,0.00,,,0.03,meteohub,2013-01-14 18:08:00,
2013-01-14 13:13:00,54.0,48.6,30.19,WNW,303,3.0,5.0,82,0.00,,,0.03,meteohub,2013-01-14 18:13:00,
2013-01-14 13:18:00,54.0,48.2,30.19,WNW,298,5.0,6.0,81,0.00,,,0.03,meteohub,2013-01-14 18:18:00,
2013-01-14 13:23:00,54.1,47.8,30.19,West,272,4.0,6.0,79,0.00,,,0.03,meteohub,2013-01-14 18:23:00,
2013-01-14 13:29:00,54.1,48.0,30.18,WNW,284,2.0,6.0,80,0.00,,,0.03,meteohub,2013-01-14 18:29:00,
2013-01-14 13:34:00,54.1,47.5,30.18,WNW,293,2.0,6.0,78,0.00,,,0.03,meteohub,2013-01-14 18:34:00,
2013-01-14 13:39:00,54.0,46.9,30.20,West,278,4.0,6.0,77,0.00,,,0.03,meteohub,2013-01-14 18:39:00,
2013-01-14 13:44:00,53.8,47.5,30.19,NW,314,2.0,6.0,79,0.00,,,0.03,meteohub,2013-01-14 18:44:00,
2013-01-14 13:49:00,53.6,47.3,30.20,WSW,257,1.0,9.0,79,0.00,,,0.03,meteohub,2013-01-14 18:49:00,
2013-01-14 13:54:00,53.6,47.7,30.21,WNW,291,1.0,9.0,80,0.00,,,0.03,meteohub,2013-01-14 18:54:00,
2013-01-14 13:59:00,53.4,47.1,30.22,NW,307,3.0,7.0,79,0.00,,,0.03,meteohub,2013-01-14 18:59:00,
2013-01-14 14:04:00,53.4,47.1,30.21,WNW,302,2.0,6.0,79,0.00,,,0.03,meteohub,2013-01-14 19:04:00,
2013-01-14 14:09:00,53.4,47.1,30.22,NW,314,2.0,6.0,79,0.00,,,0.03,meteohub,2013-01-14 19:09:00,
2013-01-14 14:14:00,53.4,47.5,30.22,NNE,33,1.0,5.0,80,0.00,,,0.03,meteohub,2013-01-14 19:14:00,
2013-01-14 14:19:00,53.4,47.5,30.22,NW,324,2.0,5.0,80,0.00,,,0.03,meteohub,2013-01-14 19:19:00,
2013-01-14 14:24:00,53.4,47.5,30.21,NNW,343,0.0,5.0,80,0.00,,,0.03,meteohub,2013-01-14 19:24:00,
2013-01-14 14:29:00,53.4,47.5,30.21,NNW,336,2.0,4.0,80,0.00,,,0.03,meteohub,2013-01-14 19:29:00,
2013-01-14 14:35:00,53.4,47.7,30.21,NNE,29,1.0,4.0,81,0.00,,,0.03,meteohub,2013-01-14 19:35:00,
2013-01-14 14:40:00,53.4,47.7,30.21,WNW,285,1.0,4.0,81,0.00,,,0.03,meteohub,2013-01-14 19:40:00,
2013-01-14 14:45:00,53.4,47.7,30.22,North,6,1.0,4.0,81,0.00,,,0.03,meteohub,2013-01-14 19:45:00,
2013-01-14 14:50:00,53.4,47.7,30.22,WNW,291,0.0,3.0,81,0.00,,,0.03,meteohub,2013-01-14 19:50:00,
2013-01-14 14:55:00,53.2,47.3,30.23,WNW,285,1.0,4.0,80,0.00,,,0.03,meteohub,2013-01-14 19:55:00,
2013-01-14 15:00:00,53.2,47.3,30.23,NW,316,1.0,4.0,80,0.00,,,0.03,meteohub,2013-01-14 20:00:00,
2013-01-14 15:05:00,53.2,47.3,30.24,WSW,248,2.0,4.0,80,0.00,,,0.03,meteohub,2013-01-14 20:05:00,
2013-01-14 15:10:00,53.1,46.8,30.24,NW,315,1.0,5.0,79,0.00,,,0.03,meteohub,2013-01-14 20:10:00,
2013-01-14 15:15:00,53.1,46.4,30.24,WNW,297,1.0,5.0,78,0.00,,,0.03,meteohub,2013-01-14 20:15:00,
2013-01-14 15:20:00,52.9,45.5,30.24,NNW,341,1.0,3.0,76,0.00,,,0.03,meteohub,2013-01-14 20:20:00,
2013-01-14 15:25:00,52.9,44.8,30.24,NW,312,3.0,5.0,74,0.00,,,0.03,meteohub,2013-01-14 20:25:00,
2013-01-14 15:30:00,52.9,44.8,30.23,NNE,31,0.0,5.0,74,0.00,,,0.03,meteohub,2013-01-14 20:30:00,
2013-01-14 15:35:00,52.7,44.6,30.23,WNW,302,0.0,5.0,74,0.00,,,0.03,meteohub,2013-01-14 20:35:00,
2013-01-14 15:41:00,52.5,44.4,30.23,WNW,288,1.0,5.0,74,0.00,,,0.03,meteohub,2013-01-14 20:41:00,
2013-01-14 15:46:00,52.5,44.1,30.23,North,350,0.0,3.0,73,0.00,,,0.03,meteohub,2013-01-14 20:46:00,
2013-01-14 15:51:00,52.5,43.7,30.23,WNW,293,1.0,4.0,72,0.00,,,0.03,meteohub,2013-01-14 20:51:00,
2013-01-14 15:56:00,52.5,43.3,30.23,West,269,0.0,4.0,71,0.00,,,0.03,meteohub,2013-01-14 20:56:00,
2013-01-14 16:01:00,52.3,43.2,30.23,NW,314,0.0,4.0,71,0.00,,,0.03,meteohub,2013-01-14 21:01:00,
2013-01-14 16:06:00,52.3,43.2,30.24,NNE,22,0.0,4.0,71,0.00,,,0.03,meteohub,2013-01-14 21:06:00,
2013-01-14 16:11:00,52.3,43.2,30.24,North,8,0.0,3.0,71,0.00,,,0.03,meteohub,2013-01-14 21:11:00,
2013-01-14 16:16:00,52.2,43.0,30.24,NW,315,0.0,2.0,71,0.00,,,0.03,meteohub,2013-01-14 21:16:00,
2013-01-14 16:21:00,52.2,42.6,30.24,NW,315,0.0,2.0,70,0.00,,,0.03,meteohub,2013-01-14 21:21:00,
2013-01-14 16:26:00,52.0,41.4,30.24,WNW,301,1.0,2.0,67,0.00,,,0.03,meteohub,2013-01-14 21:26:00,
2013-01-14 16:31:00,52.0,41.4,30.24,NW,326,0.0,3.0,67,0.00,,,0.03,meteohub,2013-01-14 21:31:00,
2013-01-14 16:36:00,52.0,41.4,30.25,NNW,330,0.0,3.0,67,0.00,,,0.03,meteohub,2013-01-14 21:36:00,
2013-01-14 16:41:00,51.8,40.8,30.24,North,354,0.0,3.0,66,0.00,,,0.03,meteohub,2013-01-14 21:41:00,
2013-01-14 16:46:00,51.6,40.6,30.25,North,5,0.0,2.0,66,0.00,,,0.03,meteohub,2013-01-14 21:46:00,
2013-01-14 16:51:00,51.6,40.6,30.25,NW,320,0.0,2.0,66,0.00,,,0.03,meteohub,2013-01-14 21:51:00,
2013-01-14 16:56:00,51.4,40.8,30.25,North,356,0.0,2.0,67,0.00,,,0.03,meteohub,2013-01-14 21:56:00,
2013-01-14 17:02:00,51.4,40.5,30.24,North,357,0.0,2.0,66,0.00,,,0.03,meteohub,2013-01-14 22:02:00,
2013-01-14 17:07:00,51.3,40.3,30.24,NNE,13,0.0,1.0,66,0.00,,,0.03,meteohub,2013-01-14 22:07:00,
2013-01-14 17:12:00,51.3,40.6,30.24,NNE,13,0.0,1.0,67,0.00,,,0.03,meteohub,2013-01-14 22:12:00,
2013-01-14 17:17:00,51.1,41.2,30.25,NNE,13,0.0,1.0,69,0.00,,,0.03,meteohub,2013-01-14 22:17:00,
2013-01-14 17:22:00,50.7,41.4,30.25,NNE,13,0.0,1.0,70,0.00,,,0.03,meteohub,2013-01-14 22:22:00,
2013-01-14 17:27:00,50.5,41.9,30.25,North,11,0.0,1.0,72,0.00,,,0.03,meteohub,2013-01-14 22:27:00,
2013-01-14 17:32:00,50.4,41.4,30.25,NNW,348,0.0,1.0,71,0.00,,,0.03,meteohub,2013-01-14 22:32:00,
2013-01-14 17:37:00,50.4,39.7,30.25,NNW,339,1.0,4.0,67,0.00,,,0.03,meteohub,2013-01-14 22:37:00,
2013-01-14 17:42:00,50.4,39.0,30.25,ENE,61,1.0,4.0,65,0.00,,,0.03,meteohub,2013-01-14 22:42:00,
2013-01-14 17:47:00,50.4,38.7,30.25,NNE,16,0.0,4.0,64,0.00,,,0.03,meteohub,2013-01-14 22:47:00,
2013-01-14 17:52:00,50.4,38.7,30.25,NNE,32,0.0,3.0,64,0.00,,,0.03,meteohub,2013-01-14 22:52:00,
2013-01-14 17:57:00,50.4,38.3,30.25,NE,39,0.0,4.0,63,0.00,,,0.03,meteohub,2013-01-14 22:57:00,
2013-01-14 18:02:00,50.4,37.8,30.25,NW,319,1.0,4.0,62,0.00,,,0.03,meteohub,2013-01-14 23:02:00,
2013-01-14 18:07:00,50.2,37.6,30.25,NNE,16,0.0,5.0,62,0.00,,,0.03,meteohub,2013-01-14 23:07:00,
2013-01-14 18:12:00,50.2,37.6,30.27,NW,323,1.0,5.0,62,0.00,,,0.03,meteohub,2013-01-14 23:12:00,
2013-01-14 18:17:00,49.8,37.4,30.28,NE,34,1.0,5.0,62,0.00,,,0.03,meteohub,2013-01-14 23:17:00,
2013-01-14 18:22:00,49.6,37.6,30.28,WNW,283,1.0,3.0,63,0.00,,,0.03,meteohub,2013-01-14 23:22:00,
2013-01-14 18:27:00,49.6,36.7,30.28,WNW,300,1.0,3.0,61,0.00,,,0.03,meteohub,2013-01-14 23:27:00,
2013-01-14 18:32:00,49.6,37.2,30.28,West,280,0.0,3.0,62,0.00,,,0.03,meteohub,2013-01-14 23:32:00,
2013-01-14 18:37:00,49.5,37.8,30.30,WSW,254,1.0,3.0,64,0.00,,,0.03,meteohub,2013-01-14 23:37:00,
2013-01-14 18:42:00,49.3,37.6,30.30,West,264,2.0,2.0,64,0.00,,,0.03,meteohub,2013-01-14 23:42:00,
2013-01-14 18:47:00,49.3,37.6,30.30,NW,305,2.0,3.0,64,0.00,,,0.03,meteohub,2013-01-14 23:47:00,
2013-01-14 18:52:00,49.1,37.4,30.30,North,11,1.0,5.0,64,0.00,,,0.03,meteohub,2013-01-14 23:52:00,
2013-01-14 18:57:00,48.9,36.9,30.30,NNE,27,0.0,5.0,63,0.00,,,0.03,meteohub,2013-01-14 23:57:00,
2013-01-14 19:02:00,48.7,36.7,30.31,NNE,17,0.0,5.0,63,0.00,,,0.03,meteohub,2013-01-15 00:02:00,
2013-01-14 19:07:00,48.6,36.1,30.32,West,264,1.0,4.0,62,0.00,,,0.00,meteohub,2013-01-15 00:07:00,
2013-01-14 19:12:00,48.6,36.1,30.32,North,350,1.0,6.0,62,0.00,,,0.00,meteohub,2013-01-15 00:12:00,
2013-01-14 19:17:00,48.6,36.5,30.32,NW,305,2.0,7.0,63,0.00,,,0.00,meteohub,2013-01-15 00:17:00,
2013-01-14 19:22:00,48.4,36.0,30.32,NNE,22,2.0,7.0,62,0.00,,,0.00,meteohub,2013-01-15 00:22:00,
2013-01-14 19:27:00,48.4,36.0,30.32,WNW,291,1.0,7.0,62,0.00,,,0.00,meteohub,2013-01-15 00:27:00,
2013-01-14 19:32:00,48.4,35.6,30.32,West,276,1.0,5.0,61,0.00,,,0.00,meteohub,2013-01-15 00:32:00,
2013-01-14 19:37:00,48.4,36.3,30.32,NW,309,1.0,5.0,63,0.00,,,0.00,meteohub,2013-01-15 00:37:00,
2013-01-14 19:42:00,48.0,36.0,30.33,NNW,330,1.0,4.0,63,0.00,,,0.00,meteohub,2013-01-15 00:42:00,
2013-01-14 19:47:00,48.0,36.0,30.34,NE,46,2.0,3.0,63,0.00,,,0.00,meteohub,2013-01-15 00:47:00,
2013-01-14 19:52:00,47.8,35.8,30.33,NE,39,2.0,6.0,63,0.00,,,0.00,meteohub,2013-01-15 00:52:00,
2013-01-14 19:57:00,47.8,36.3,30.34,NW,304,1.0,6.0,64,0.00,,,0.00,meteohub,2013-01-15 00:57:00,
2013-01-14 20:02:00,47.7,36.1,30.33,NW,315,1.0,6.0,64,0.00,,,0.00,meteohub,2013-01-15 01:02:00,
2013-01-14 20:07:00,47.7,36.1,30.33,NNW,330,2.0,6.0,64,0.00,,,0.00,meteohub,2013-01-15 01:07:00,
2013-01-14 20:12:00,47.7,36.9,30.33,NNE,13,1.0,6.0,66,0.00,,,0.00,meteohub,2013-01-15 01:12:00,
2013-01-14 20:17:00,47.3,36.9,30.34,WNW,283,8.0,8.0,67,0.00,,,0.00,meteohub,2013-01-15 01:17:00,
2013-01-14 20:22:00,46.9,36.5,30.33,NNE,32,2.0,8.0,67,0.00,,,0.00,meteohub,2013-01-15 01:22:00,
2013-01-14 20:27:00,46.8,36.0,30.33,WNW,291,2.0,8.0,66,0.00,,,0.00,meteohub,2013-01-15 01:27:00,
2013-01-14 20:32:00,46.4,36.9,30.33,NNE,30,3.0,8.0,69,0.00,,,0.00,meteohub,2013-01-15 01:32:00,
2013-01-14 20:37:00,45.9,37.0,30.33,NE,49,2.0,6.0,71,0.00,,,0.00,meteohub,2013-01-15 01:37:00,
2013-01-14 20:42:00,45.1,37.4,30.34,WNW,283,2.0,6.0,74,0.00,,,0.00,meteohub,2013-01-15 01:42:00,
2013-01-14 20:47:00,44.8,37.8,30.34,NNW,343,0.0,6.0,76,0.01,,,0.01,meteohub,2013-01-15 01:47:00,
2013-01-14 20:52:00,44.4,37.6,30.34,NW,317,1.0,6.0,77,0.01,,,0.01,meteohub,2013-01-15 01:52:00,
2013-01-14 20:57:00,44.1,37.6,30.35,WNW,293,1.0,4.0,78,0.01,,,0.01,meteohub,2013-01-15 01:57:00,
2013-01-14 21:02:00,43.9,37.2,30.35,North,1,0.0,4.0,77,0.01,,,0.01,meteohub,2013-01-15 02:02:00,
2013-01-14 21:07:00,43.7,37.0,30.35,NE,36,1.0,4.0,77,0.01,,,0.01,meteohub,2013-01-15 02:07:00,
2013-01-14 21:12:00,43.5,37.4,30.35,NNE,16,0.0,4.0,79,0.01,,,0.01,meteohub,2013-01-15 02:12:00,
2013-01-14 21:17:00,43.3,37.6,30.35,NNW,338,0.0,4.0,80,0.01,,,0.01,meteohub,2013-01-15 02:17:00,
2013-01-14 21:22:00,43.2,37.8,30.35,NNE,24,2.0,4.0,81,0.01,,,0.01,meteohub,2013-01-15 02:22:00,
2013-01-14 21:27:00,43.0,37.9,30.34,NNE,17,0.0,4.0,82,0.01,,,0.01,meteohub,2013-01-15 02:27:00,
2013-01-14 21:32:00,42.8,37.9,30.35,NNE,16,0.0,3.0,83,0.01,,,0.01,meteohub,2013-01-15 02:32:00,
2013-01-14 21:37:00,42.6,38.1,30.35,NNE,15,0.0,3.0,84,0.02,,,0.02,meteohub,2013-01-15 02:37:00,
2013-01-14 21:42:00,42.4,38.3,30.35,WNW,284,0.0,1.0,85,0.01,,,0.02,meteohub,2013-01-15 02:42:00,
2013-01-14 21:47:00,42.3,38.3,30.35,West,264,0.0,1.0,86,0.01,,,0.02,meteohub,2013-01-15 02:47:00,
2013-01-14 21:52:00,42.1,38.1,30.36,WNW,297,0.0,3.0,86,0.01,,,0.02,meteohub,2013-01-15 02:52:00,
2013-01-14 21:57:00,41.9,37.9,30.35,NW,304,1.0,3.0,86,0.01,,,0.02,meteohub,2013-01-15 02:57:00,
2013-01-14 22:02:00,41.7,37.8,30.35,North,6,0.0,3.0,86,0.02,,,0.03,meteohub,2013-01-15 03:02:00,
2013-01-14 22:07:00,41.5,37.9,30.35,NE,37,0.0,5.0,87,0.03,,,0.04,meteohub,2013-01-15 03:07:00,
2013-01-14 22:12:00,41.4,37.8,30.35,NNE,33,1.0,5.0,87,0.03,,,0.04,meteohub,2013-01-15 03:12:00,
2013-01-14 22:17:00,41.2,37.9,30.35,NNE,33,1.0,5.0,88,0.03,,,0.04,meteohub,2013-01-15 03:17:00,
2013-01-14 22:22:00,40.8,37.6,30.35,NNE,27,1.0,3.0,88,0.04,,,0.05,meteohub,2013-01-15 03:22:00,
2013-01-14 22:27:00,40.6,37.6,30.36,NNW,334,1.0,4.0,89,0.04,,,0.05,meteohub,2013-01-15 03:27:00,
2013-01-14 22:32:00,40.5,37.4,30.36,North,5,3.0,4.0,89,0.04,,,0.06,meteohub,2013-01-15 03:32:00,
2013-01-14 22:37:00,40.3,37.2,30.36,North,11,2.0,5.0,89,0.04,,,0.06,meteohub,2013-01-15 03:37:00,
2013-01-14 22:43:00,39.9,36.7,30.36,West,271,2.0,6.0,88,0.04,,,0.06,meteohub,2013-01-15 03:43:00,
2013-01-14 22:48:00,39.7,36.5,30.36,NE,55,2.0,7.0,88,0.04,,,0.06,meteohub,2013-01-15 03:48:00,
2013-01-14 22:53:00,39.6,36.5,30.36,NE,51,2.0,9.0,89,0.05,,,0.07,meteohub,2013-01-15 03:53:00,
2013-01-14 22:58:00,39.4,36.7,30.36,NNE,15,1.0,9.0,90,0.05,,,0.07,meteohub,2013-01-15 03:58:00,
2013-01-14 23:03:00,39.4,36.7,30.36,NE,37,2.0,6.0,90,0.05,,,0.08,meteohub,2013-01-15 04:03:00,
2013-01-14 23:08:00,39.0,36.7,30.37,North,10,0.0,6.0,91,0.04,,,0.08,meteohub,2013-01-15 04:08:00,
2013-01-14 23:13:00,39.0,36.7,30.38,NNW,338,0.0,6.0,91,0.05,,,0.09,meteohub,2013-01-15 04:13:00,
2013-01-14 23:18:00,38.8,36.5,30.38,NNE,22,0.0,6.0,91,0.04,,,0.09,meteohub,2013-01-15 04:18:00,
2013-01-14 23:23:00,38.8,36.5,30.38,West,266,0.0,5.0,91,0.04,,,0.09,meteohub,2013-01-15 04:23:00,
2013-01-14 23:28:00,38.7,36.0,30.37,NE,39,2.0,4.0,90,0.04,,,0.09,meteohub,2013-01-15 04:28:00,
2013-01-14 23:33:00,38.7,36.0,30.37,NNE,30,3.0,6.0,90,0.03,,,0.09,meteohub,2013-01-15 04:33:00,
2013-01-14 23:38:00,38.7,36.0,30.37,NE,41,1.0,6.0,90,0.03,,,0.09,meteohub,2013-01-15 04:38:00,
2013-01-14 23:43:00,38.5,35.8,30.37,North,355,1.0,6.0,90,0.04,,,0.10,meteohub,2013-01-15 04:43:00,
2013-01-14 23:48:00,38.3,35.6,30.37,NNE,33,3.0,5.0,90,0.03,,,0.10,meteohub,2013-01-15 04:48:00,
2013-01-14 23:53:00,38.1,35.4,30.37,NNE,25,1.0,5.0,90,0.03,,,0.10,meteohub,2013-01-15 04:53:00,
2013-01-14 23:59:00,38.1,35.4,30.36,ENE,58,1.0,5.0,90,0.02,,,0.10,meteohub,2013-01-15 04:59:00,